Time,TemperatureF,DewpointF,PressureIn,WindDirection,WindDirectionDegrees,WindSpeedMPH,WindSpeedGustMPH,Humidity,HourlyPrecipIn,Conditions,Clouds,dailyrainin,SoftwareType,DateUTC
2013-01-11 00:00:00,27.3,23.0,30.06,SE,135,1.0,1.0,91,0.00,,,0.00,WeatherTracker,2013-01-11 08:00:00,
2013-01-11 00:10:00,27.3,23.0,30.06,NE,45,0.0,0.0,91,0.00,,,0.00,WeatherTracker,2013-01-11 08:10:00,
2013-01-11 00:20:00,27.5,23.0,30.06,SE,135,2.0,2.0,91,0.00,,,0.00,WeatherTracker,2013-01-11 08:20:00,
2013-01-11 00:25:00,27.5,23.0,30.06,East,90,0.0,0.0,91,0.00,,,0.00,WeatherTracker,2013-01-11 08:25:00,
2013-01-11 00:35:00,27.1,23.0,30.09,East,90,0.0,0.0,90,0.00,,,0.00,WeatherTracker,2013-01-11 08:35:00,
2013-01-11 00:45:00,27.1,23.0,30.09,SE,135,1.0,1.0,90,0.00,,,0.00,WeatherTracker,2013-01-11 08:45:00,
2013-01-11 00:50:00,27.3,23.0,30.09,East,90,1.0,1.0,90,0.00,,,0.00,WeatherTracker,2013-01-11 08:50:00,
2013-01-11 01:00:00,27.9,23.0,30.09,ESE,112,1.0,0.0,90,0.00,,,0.00,WeatherTracker,2013-01-11 09:00:00,
2013-01-11 01:10:00,27.5,23.0,30.09,ENE,67,0.0,0.0,89,0.00,,,0.00,WeatherTracker,2013-01-11 09:10:00,
2013-01-11 01:20:00,27.0,23.0,30.09,East,90,0.0,0.0,89,0.00,,,0.00,WeatherTracker,2013-01-11 09:20:00,
2013-01-11 01:25:00,26.8,23.0,30.09,East,90,0.0,0.0,88,0.00,,,0.00,WeatherTracker,2013-01-11 09:25:00,
2013-01-11 01:35:00,26.8,23.0,30.09,South,180,0.0,0.0,88,0.00,,,0.00,WeatherTracker,2013-01-11 09:35:00,
2013-01-11 01:45:00,27.0,23.0,30.09,NE,45,0.0,0.0,88,0.00,,,0.00,WeatherTracker,2013-01-11 09:45:00,
2013-01-11 01:55:00,27.0,23.0,30.09,SE,135,0.0,0.0,88,0.00,,,0.00,WeatherTracker,2013-01-11 09:55:00,
2013-01-11 02:00:00,26.8,23.0,30.09,SE,135,1.0,0.0,88,0.00,,,0.00,WeatherTracker,2013-01-11 10:00:00,
2013-01-11 02:10:00,26.6,23.0,30.09,ESE,112,0.0,0.0,88,0.00,,,0.00,WeatherTracker,2013-01-11 10:10:00,
2013-01-11 02:20:00,26.1,21.2,30.09,SE,135,2.0,3.0,88,0.00,,,0.00,WeatherTracker,2013-01-11 10:20:00,
2013-01-11 02:30:00,26.1,23.0,30.09,East,90,0.0,0.0,89,0.00,,,0.00,WeatherTracker,2013-01-11 10:30:00,
2013-01-11 02:35:00,25.9,21.2,30.09,SSE,157,0.0,3.0,88,0.00,,,0.00,WeatherTracker,2013-01-11 10:35:00,
2013-01-11 02:45:00,25.7,21.2,30.12,SE,135,0.0,0.0,89,0.00,,,0.00,WeatherTracker,2013-01-11 10:45:00,
2013-01-11 02:55:00,25.9,23.0,30.12,East,90,0.0,0.0,89,0.00,,,0.00,WeatherTracker,2013-01-11 10:55:00,
2013-01-11 03:00:00,25.9,23.0,30.12,East,90,0.0,0.0,89,0.00,,,0.00,WeatherTracker,2013-01-11 11:00:00,
2013-01-11 03:05:00,25.7,21.2,30.12,ESE,112,1.0,1.0,89,0.00,,,0.00,WeatherTracker,2013-01-11 11:05:00,
2013-01-11 03:15:00,25.7,21.2,30.09,SSE,157,0.0,2.0,89,0.00,,,0.00,WeatherTracker,2013-01-11 11:15:00,
2013-01-11 03:20:00,25.5,21.2,30.09,SE,135,1.0,0.0,89,0.00,,,0.00,WeatherTracker,2013-01-11 11:20:00,
2013-01-11 03:30:00,25.3,21.2,30.12,East,90,0.0,0.0,89,0.00,,,0.00,WeatherTracker,2013-01-11 11:30:00,
2013-01-11 03:35:00,25.9,23.0,30.12,SE,135,1.0,1.0,90,0.00,,,0.00,WeatherTracker,2013-01-11 11:35:00,
2013-01-11 03:40:00,25.9,23.0,30.12,SE,135,2.0,2.0,89,0.00,,,0.00,WeatherTracker,2013-01-11 11:40:00,
2013-01-11 03:45:00,25.7,21.2,30.12,ESE,112,0.0,0.0,89,0.00,,,0.00,WeatherTracker,2013-01-11 11:45:00,
2013-01-11 03:55:00,25.5,21.2,30.12,SE,135,1.0,2.0,89,0.00,,,0.00,WeatherTracker,2013-01-11 11:55:00,
2013-01-11 04:05:00,25.3,21.2,30.12,East,90,0.0,0.0,89,0.00,,,0.00,WeatherTracker,2013-01-11 12:05:00,
2013-01-11 04:15:00,25.2,21.2,30.12,SE,135,0.0,0.0,89,0.00,,,0.00,WeatherTracker,2013-01-11 12:15:00,
2013-01-11 04:20:00,25.2,21.2,30.12,ESE,112,1.0,0.0,90,0.00,,,0.00,WeatherTracker,2013-01-11 12:20:00,
2013-01-11 04:30:00,25.3,21.2,30.12,SE,135,2.0,2.0,90,0.00,,,0.00,WeatherTracker,2013-01-11 12:30:00,
2013-01-11 04:40:00,25.3,21.2,30.12,East,90,0.0,0.0,90,0.00,,,0.00,WeatherTracker,2013-01-11 12:40:00,
2013-01-11 04:50:00,25.2,21.2,30.12,SE,135,2.0,2.0,90,0.00,,,0.00,WeatherTracker,2013-01-11 12:50:00,
2013-01-11 04:55:00,25.2,21.2,30.12,ENE,67,1.0,2.0,90,0.00,,,0.00,WeatherTracker,2013-01-11 12:55:00,
2013-01-11 05:05:00,25.2,23.0,30.12,SSE,157,2.0,3.0,91,0.00,,,0.00,WeatherTracker,2013-01-11 13:05:00,
2013-01-11 05:15:00,25.3,23.0,30.15,SE,135,1.0,0.0,91,0.00,,,0.00,WeatherTracker,2013-01-11 13:15:00,
2013-01-11 05:20:00,25.3,23.0,30.15,SSE,157,1.0,2.0,91,0.00,,,0.00,WeatherTracker,2013-01-11 13:20:00,
2013-01-11 05:25:00,25.2,23.0,30.15,SE,135,0.0,0.0,91,0.00,,,0.00,WeatherTracker,2013-01-11 13:25:00,
2013-01-11 05:30:00,25.2,23.0,30.15,SE,135,1.0,0.0,91,0.00,,,0.00,WeatherTracker,2013-01-11 13:30:00,
2013-01-11 05:40:00,25.2,23.0,30.15,SE,135,1.0,1.0,91,0.00,,,0.00,WeatherTracker,2013-01-11 13:40:00,
2013-01-11 05:50:00,25.3,23.0,30.15,East,90,0.0,0.0,91,0.00,,,0.00,WeatherTracker,2013-01-11 13:50:00,
2013-01-11 06:00:00,25.3,23.0,30.12,SE,135,2.0,2.0,91,0.00,,,0.00,WeatherTracker,2013-01-11 14:00:00,
2013-01-11 06:05:00,25.2,21.2,30.12,SE,135,0.0,0.0,90,0.00,,,0.00,WeatherTracker,2013-01-11 14:05:00,
2013-01-11 06:15:00,25.2,21.2,30.15,East,90,1.0,1.0,90,0.00,,,0.00,WeatherTracker,2013-01-11 14:15:00,
2013-01-11 06:25:00,24.8,21.2,30.15,SE,135,2.0,2.0,90,0.00,,,0.00,WeatherTracker,2013-01-11 14:25:00,
2013-01-11 06:35:00,25.0,21.2,30.18,East,90,1.0,1.0,90,0.00,,,0.00,WeatherTracker,2013-01-11 14:35:00,
2013-01-11 06:40:00,25.0,21.2,30.18,SE,135,0.0,0.0,90,0.00,,,0.00,WeatherTracker,2013-01-11 14:40:00,
2013-01-11 06:50:00,24.8,21.2,30.15,SE,135,3.0,3.0,90,0.00,,,0.00,WeatherTracker,2013-01-11 14:50:00,
2013-01-11 06:55:00,24.8,21.2,30.15,East,90,1.0,1.0,90,0.00,,,0.00,WeatherTracker,2013-01-11 14:55:00,
2013-01-11 07:00:00,24.6,21.2,30.15,East,90,0.0,0.0,90,0.00,,,0.00,WeatherTracker,2013-01-11 15:00:00,
2013-01-11 07:10:00,24.4,21.2,30.15,ESE,112,0.0,0.0,90,0.00,,,0.00,WeatherTracker,2013-01-11 15:10:00,
2013-01-11 07:15:00,24.4,21.2,30.18,SE,135,1.0,1.0,90,0.00,,,0.00,WeatherTracker,2013-01-11 15:15:00,
2013-01-11 07:25:00,24.4,21.2,30.18,East,90,0.0,0.0,91,0.00,,,0.00,WeatherTracker,2013-01-11 15:25:00,
2013-01-11 07:30:00,24.4,21.2,30.21,SE,135,2.0,2.0,91,0.00,,,0.00,WeatherTracker,2013-01-11 15:30:00,
2013-01-11 07:35:00,24.4,21.2,30.21,East,90,1.0,0.0,91,0.00,,,0.00,WeatherTracker,2013-01-11 15:35:00,
2013-01-11 07:40:00,24.4,21.2,30.21,SE,135,0.0,0.0,91,0.00,,,0.00,WeatherTracker,2013-01-11 15:40:00,
2013-01-11 07:45:00,24.4,21.2,30.18,SE,135,1.0,2.0,91,0.00,,,0.00,WeatherTracker,2013-01-11 15:45:00,
2013-01-11 07:55:00,24.3,21.2,30.18,ESE,112,0.0,0.0,91,0.00,,,0.00,WeatherTracker,2013-01-11 15:55:00,
2013-01-11 08:00:00,24.4,21.2,30.18,SE,135,1.0,1.0,91,0.00,,,0.00,WeatherTracker,2013-01-11 16:00:00,
2013-01-11 08:10:00,24.3,21.2,30.18,SE,135,2.0,3.0,91,0.00,,,0.00,WeatherTracker,2013-01-11 16:10:00,
2013-01-11 08:20:00,24.4,21.2,30.21,East,90,1.0,1.0,92,0.00,,,0.00,WeatherTracker,2013-01-11 16:20:00,
2013-01-11 08:25:00,24.6,21.2,30.21,SE,135,1.0,0.0,92,0.00,,,0.00,WeatherTracker,2013-01-11 16:25:00,
2013-01-11 08:35:00,24.8,21.2,30.21,SE,135,0.0,0.0,92,0.00,,,0.00,WeatherTracker,2013-01-11 16:35:00,
2013-01-11 08:45:00,25.3,23.0,30.21,SE,135,1.0,2.0,92,0.00,,,0.00,WeatherTracker,2013-01-11 16:45:00,
2013-01-11 08:55:00,26.2,23.0,30.21,East,90,0.0,0.0,92,0.00,,,0.00,WeatherTracker,2013-01-11 16:55:00,
2013-01-11 09:00:00,27.1,23.0,30.21,East,90,1.0,1.0,92,0.00,,,0.00,WeatherTracker,2013-01-11 17:00:00,
2013-01-11 09:10:00,27.9,24.8,30.21,NNE,22,0.0,1.0,92,0.00,,,0.00,WeatherTracker,2013-01-11 17:10:00,
2013-01-11 09:15:00,28.6,24.8,30.21,SE,135,0.0,0.0,92,0.00,,,0.00,WeatherTracker,2013-01-11 17:15:00,
2013-01-11 09:20:00,29.5,26.6,30.21,SSE,157,3.0,3.0,93,0.00,,,0.00,WeatherTracker,2013-01-11 17:20:00,
2013-01-11 09:30:00,30.0,26.6,30.24,SE,135,3.0,3.0,89,0.00,,,0.00,WeatherTracker,2013-01-11 17:30:00,
2013-01-11 09:35:00,30.4,24.8,30.24,East,90,0.0,0.0,84,0.00,,,0.00,WeatherTracker,2013-01-11 17:35:00,
2013-01-11 09:45:00,31.1,23.0,30.24,SSE,157,2.0,2.0,77,0.00,,,0.00,WeatherTracker,2013-01-11 17:45:00,
2013-01-11 09:55:00,32.0,21.2,30.24,SE,135,4.0,4.0,65,0.00,,,0.00,WeatherTracker,2013-01-11 17:55:00,
2013-01-11 10:05:00,34.2,23.0,30.27,SE,135,2.0,3.0,64,0.00,,,0.00,WeatherTracker,2013-01-11 18:05:00,
2013-01-11 10:10:00,34.5,21.2,30.27,SE,135,3.0,9.0,59,0.00,,,0.00,WeatherTracker,2013-01-11 18:10:00,
2013-01-11 10:20:00,35.4,21.2,30.27,SSE,157,3.0,3.0,56,0.00,,,0.00,WeatherTracker,2013-01-11 18:20:00,
2013-01-11 10:30:00,36.0,21.2,30.27,South,180,3.0,8.0,55,0.00,,,0.00,WeatherTracker,2013-01-11 18:30:00,
2013-01-11 10:40:00,37.4,21.2,30.27,SE,135,3.0,5.0,51,0.00,,,0.00,WeatherTracker,2013-01-11 18:40:00,
2013-01-11 10:45:00,38.1,21.2,30.27,SSE,157,3.0,3.0,51,0.00,,,0.00,WeatherTracker,2013-01-11 18:45:00,
2013-01-11 10:55:00,39.2,23.0,30.27,ESE,112,1.0,0.0,50,0.00,,,0.00,WeatherTracker,2013-01-11 18:55:00,
2013-01-11 11:05:00,40.3,23.0,30.27,SE,135,1.0,1.0,48,0.00,,,0.00,WeatherTracker,2013-01-11 19:05:00,
2013-01-11 11:15:00,41.0,23.0,30.27,South,180,1.0,2.0,46,0.00,,,0.00,WeatherTracker,2013-01-11 19:15:00,
2013-01-11 11:20:00,41.2,21.2,30.27,SE,135,2.0,2.0,45,0.00,,,0.00,WeatherTracker,2013-01-11 19:20:00,
2013-01-11 11:30:00,41.7,21.2,30.27,SE,135,2.0,3.0,44,0.00,,,0.00,WeatherTracker,2013-01-11 19:30:00,
2013-01-11 11:35:00,42.6,23.0,30.27,SE,135,1.0,2.0,46,0.00,,,0.00,WeatherTracker,2013-01-11 19:35:00,
2013-01-11 11:40:00,42.4,21.2,30.27,SSE,157,3.0,3.0,43,0.00,,,0.00,WeatherTracker,2013-01-11 19:40:00,
2013-01-11 11:50:00,44.1,23.0,30.27,South,180,0.0,0.0,44,0.00,,,0.00,WeatherTracker,2013-01-11 19:50:00,
2013-01-11 11:55:00,44.2,23.0,30.27,ESE,112,1.0,0.0,43,0.00,,,0.00,WeatherTracker,2013-01-11 19:55:00,
2013-01-11 12:05:00,45.3,23.0,30.24,SE,135,1.0,2.0,43,0.00,,,0.00,WeatherTracker,2013-01-11 20:05:00,
2013-01-11 12:15:00,44.6,23.0,30.27,SSE,157,1.0,0.0,41,0.00,,,0.00,WeatherTracker,2013-01-11 20:15:00,
2013-01-11 12:20:00,45.0,23.0,30.27,SSE,157,1.0,1.0,41,0.00,,,0.00,WeatherTracker,2013-01-11 20:20:00,
2013-01-11 12:25:00,44.2,21.2,30.27,SW,225,0.0,1.0,41,0.00,,,0.00,WeatherTracker,2013-01-11 20:25:00,
2013-01-11 12:30:00,45.0,23.0,30.24,NNE,22,0.0,0.0,41,0.00,,,0.00,WeatherTracker,2013-01-11 20:30:00,
2013-01-11 12:40:00,45.0,23.0,30.24,SSW,202,0.0,1.0,41,0.00,,,0.00,WeatherTracker,2013-01-11 20:40:00,
2013-01-11 12:50:00,45.9,23.0,30.24,WNW,292,2.0,3.0,40,0.00,,,0.00,WeatherTracker,2013-01-11 20:50:00,
2013-01-11 13:00:00,45.9,23.0,30.24,North,0,2.0,2.0,40,0.00,,,0.00,WeatherTracker,2013-01-11 21:00:00,
2013-01-11 13:10:00,45.5,23.0,30.24,WNW,292,1.0,1.0,40,0.00,,,0.00,WeatherTracker,2013-01-11 21:10:00,
2013-01-11 13:15:00,45.1,23.0,30.24,NNW,337,3.0,4.0,40,0.00,,,0.00,WeatherTracker,2013-01-11 21:15:00,
2013-01-11 13:25:00,44.8,21.2,30.24,NW,315,3.0,3.0,40,0.00,,,0.00,WeatherTracker,2013-01-11 21:25:00,
2013-01-11 13:35:00,45.0,23.0,30.24,North,0,2.0,2.0,41,0.00,,,0.00,WeatherTracker,2013-01-11 21:35:00,
2013-01-11 13:40:00,44.2,23.0,30.24,North,0,3.0,3.0,42,0.00,,,0.00,WeatherTracker,2013-01-11 21:40:00,
2013-01-11 13:50:00,43.5,23.0,30.24,North,0,3.0,3.0,43,0.00,,,0.00,WeatherTracker,2013-01-11 21:50:00,
2013-01-11 14:00:00,43.2,23.0,30.24,North,0,4.0,4.0,44,0.00,,,0.00,WeatherTracker,2013-01-11 22:00:00,
2013-01-11 14:10:00,42.4,23.0,30.24,ENE,67,3.0,5.0,45,0.00,,,0.00,WeatherTracker,2013-01-11 22:10:00,
2013-01-11 14:15:00,42.3,23.0,30.27,North,0,3.0,3.0,46,0.00,,,0.00,WeatherTracker,2013-01-11 22:15:00,
2013-01-11 14:25:00,41.5,23.0,30.27,NE,45,3.0,3.0,47,0.00,,,0.00,WeatherTracker,2013-01-11 22:25:00,
2013-01-11 14:35:00,41.0,23.0,30.24,NW,315,2.0,3.0,47,0.00,,,0.00,WeatherTracker,2013-01-11 22:35:00,
2013-01-11 14:45:00,40.6,23.0,30.24,North,0,3.0,3.0,49,0.00,,,0.00,WeatherTracker,2013-01-11 22:45:00,
2013-01-11 14:50:00,40.5,23.0,30.24,NW,315,3.0,5.0,49,0.00,,,0.00,WeatherTracker,2013-01-11 22:50:00,
2013-01-11 15:00:00,40.5,23.0,30.24,NNE,22,3.0,4.0,49,0.00,,,0.00,WeatherTracker,2013-01-11 23:00:00,
2013-01-11 15:10:00,39.6,23.0,30.24,North,0,2.0,3.0,50,0.00,,,0.00,WeatherTracker,2013-01-11 23:10:00,
2013-01-11 15:20:00,39.7,23.0,30.27,NNW,337,4.0,4.0,50,0.00,,,0.00,WeatherTracker,2013-01-11 23:20:00,
2013-01-11 15:25:00,39.4,23.0,30.27,North,0,0.0,0.0,51,0.00,,,0.00,WeatherTracker,2013-01-11 23:25:00,
2013-01-11 15:35:00,37.9,23.0,30.24,ENE,67,0.0,0.0,52,0.00,,,0.00,WeatherTracker,2013-01-11 23:35:00,
2013-01-11 15:45:00,36.1,21.2,30.27,ENE,67,1.0,1.0,53,0.00,,,0.00,WeatherTracker,2013-01-11 23:45:00,
2013-01-11 15:55:00,34.7,21.2,30.27,ENE,67,0.0,0.0,55,0.00,,,0.00,WeatherTracker,2013-01-11 23:55:00,
2013-01-11 16:00:00,34.2,21.2,30.27,ENE,67,0.0,0.0,56,0.00,,,0.00,WeatherTracker,2013-01-12 00:00:00,
2013-01-11 16:10:00,33.1,21.2,30.27,ENE,67,0.0,0.0,59,0.00,,,0.00,WeatherTracker,2013-01-12 00:10:00,
2013-01-11 16:15:00,32.9,21.2,30.27,ENE,67,0.0,0.0,59,0.00,,,0.00,WeatherTracker,2013-01-12 00:15:00,
2013-01-11 16:20:00,32.5,21.2,30.27,SE,135,0.0,1.0,60,0.00,,,0.00,WeatherTracker,2013-01-12 00:20:00,
2013-01-11 16:25:00,32.0,19.4,30.27,ESE,112,0.0,0.0,61,0.00,,,0.00,WeatherTracker,2013-01-12 00:25:00,
2013-01-11 16:30:00,31.6,19.4,30.24,ESE,112,0.0,0.0,63,0.00,,,0.00,WeatherTracker,2013-01-12 00:30:00,
2013-01-11 16:35:00,31.1,19.4,30.24,ESE,112,0.0,0.0,64,0.00,,,0.00,WeatherTracker,2013-01-12 00:35:00,
2013-01-11 16:45:00,30.7,19.4,30.27,ESE,112,0.0,0.0,65,0.00,,,0.00,WeatherTracker,2013-01-12 00:45:00,
2013-01-11 16:55:00,30.6,19.4,30.27,ESE,112,0.0,0.0,66,0.00,,,0.00,WeatherTracker,2013-01-12 00:55:00,
2013-01-11 17:05:00,30.2,19.4,30.27,ESE,112,0.0,0.0,69,0.00,,,0.00,WeatherTracker,2013-01-12 01:05:00,
2013-01-11 17:10:00,30.0,21.2,30.27,ESE,112,0.0,0.0,70,0.00,,,0.00,WeatherTracker,2013-01-12 01:10:00,
2013-01-11 17:20:00,29.7,21.2,30.27,ESE,112,0.0,0.0,72,0.00,,,0.00,WeatherTracker,2013-01-12 01:20:00,
2013-01-11 17:30:00,29.3,21.2,30.24,SE,135,1.0,1.0,73,0.00,,,0.00,WeatherTracker,2013-01-12 01:30:00,
2013-01-11 17:40:00,28.9,21.2,30.24,SE,135,0.0,0.0,74,0.00,,,0.00,WeatherTracker,2013-01-12 01:40:00,
2013-01-11 17:45:00,28.9,21.2,30.24,SE,135,0.0,0.0,75,0.00,,,0.00,WeatherTracker,2013-01-12 01:45:00,
2013-01-11 17:55:00,28.9,21.2,30.24,East,90,1.0,1.0,76,0.00,,,0.00,WeatherTracker,2013-01-12 01:55:00,
2013-01-11 18:05:00,28.9,21.2,30.27,East,90,0.0,0.0,77,0.00,,,0.00,WeatherTracker,2013-01-12 02:05:00,
2013-01-11 18:10:00,29.1,21.2,30.27,East,90,0.0,0.0,77,0.00,,,0.00,WeatherTracker,2013-01-12 02:10:00,
2013-01-11 18:15:00,29.1,21.2,30.27,East,90,1.0,1.0,78,0.00,,,0.00,WeatherTracker,2013-01-12 02:15:00,
2013-01-11 18:20:00,29.5,23.0,30.27,ESE,112,0.0,0.0,79,0.00,,,0.00,WeatherTracker,2013-01-12 02:20:00,
2013-01-11 18:30:00,29.7,23.0,30.27,East,90,0.0,0.0,79,0.00,,,0.00,WeatherTracker,2013-01-12 02:30:00,
2013-01-11 18:40:00,30.2,23.0,30.27,ESE,112,1.0,0.0,80,0.00,,,0.00,WeatherTracker,2013-01-12 02:40:00,
2013-01-11 18:50:00,30.2,23.0,30.27,East,90,0.0,0.0,79,0.00,,,0.00,WeatherTracker,2013-01-12 02:50:00,
2013-01-11 18:55:00,30.0,23.0,30.27,East,90,0.0,0.0,79,0.00,,,0.00,WeatherTracker,2013-01-12 02:55:00,
2013-01-11 19:05:00,29.5,23.0,30.27,SE,135,0.0,0.0,79,0.00,,,0.00,WeatherTracker,2013-01-12 03:05:00,
2013-01-11 19:15:00,29.1,23.0,30.27,SE,135,0.0,0.0,79,0.00,,,0.00,WeatherTracker,2013-01-12 03:15:00,
2013-01-11 19:25:00,28.9,23.0,30.27,SE,135,1.0,2.0,79,0.00,,,0.00,WeatherTracker,2013-01-12 03:25:00,
2013-01-11 19:30:00,28.8,23.0,30.27,SE,135,0.0,0.0,79,0.00,,,0.00,WeatherTracker,2013-01-12 03:30:00,
2013-01-11 19:40:00,28.4,21.2,30.27,SE,135,0.0,0.0,80,0.00,,,0.00,WeatherTracker,2013-01-12 03:40:00,
2013-01-11 19:50:00,28.0,21.2,30.24,SE,135,0.0,0.0,80,0.00,,,0.00,WeatherTracker,2013-01-12 03:50:00,
2013-01-11 19:55:00,27.9,21.2,30.24,SE,135,0.0,0.0,80,0.00,,,0.00,WeatherTracker,2013-01-12 03:55:00,
2013-01-11 20:00:00,28.0,21.2,30.27,SE,135,2.0,2.0,80,0.00,,,0.00,WeatherTracker,2013-01-12 04:00:00,
2013-01-11 20:10:00,27.9,21.2,30.27,SE,135,0.0,0.0,80,0.00,,,0.00,WeatherTracker,2013-01-12 04:10:00,
2013-01-11 20:15:00,27.7,21.2,30.27,SE,135,0.0,0.0,80,0.00,,,0.00,WeatherTracker,2013-01-12 04:15:00,
2013-01-11 20:25:00,27.9,21.2,30.27,SE,135,1.0,2.0,80,0.00,,,0.00,WeatherTracker,2013-01-12 04:25:00,
2013-01-11 20:35:00,28.0,21.2,30.27,ENE,67,0.0,0.0,80,0.00,,,0.00,WeatherTracker,2013-01-12 04:35:00,
2013-01-11 20:40:00,28.2,21.2,30.27,East,90,0.0,0.0,80,0.00,,,0.00,WeatherTracker,2013-01-12 04:40:00,
2013-01-11 20:50:00,28.4,21.2,30.27,East,90,0.0,0.0,79,0.00,,,0.00,WeatherTracker,2013-01-12 04:50:00,
2013-01-11 20:55:00,28.6,21.2,30.27,East,90,0.0,0.0,79,0.00,,,0.00,WeatherTracker,2013-01-12 04:55:00,
2013-01-11 21:00:00,28.6,21.2,30.27,NNE,22,0.0,1.0,78,0.00,,,0.00,WeatherTracker,2013-01-12 05:00:00,
2013-01-11 21:05:00,28.6,21.2,30.27,NNE,22,0.0,0.0,78,0.00,,,0.00,WeatherTracker,2013-01-12 05:05:00,
2013-01-11 21:10:00,28.6,21.2,30.27,NNE,22,0.0,1.0,77,0.00,,,0.00,WeatherTracker,2013-01-12 05:10:00,
2013-01-11 21:15:00,28.6,21.2,30.27,NNE,22,0.0,0.0,77,0.00,,,0.00,WeatherTracker,2013-01-12 05:15:00,
2013-01-11 21:25:00,28.6,21.2,30.27,NNE,22,0.0,0.0,76,0.00,,,0.00,WeatherTracker,2013-01-12 05:25:00,
2013-01-11 21:35:00,28.6,21.2,30.27,NNE,22,0.0,0.0,76,0.00,,,0.00,WeatherTracker,2013-01-12 05:35:00,
2013-01-11 21:40:00,28.6,21.2,30.27,NNE,22,0.0,1.0,76,0.00,,,0.00,WeatherTracker,2013-01-12 05:40:00,
2013-01-11 21:45:00,28.6,21.2,30.27,NNE,22,0.0,0.0,76,0.00,,,0.00,WeatherTracker,2013-01-12 05:45:00,
2013-01-11 21:50:00,28.6,21.2,30.27,ESE,112,0.0,0.0,76,0.00,,,0.00,WeatherTracker,2013-01-12 05:50:00,
2013-01-11 22:00:00,28.8,21.2,30.27,ESE,112,0.0,1.0,76,0.00,,,0.00,WeatherTracker,2013-01-12 06:00:00,
2013-01-11 22:05:00,28.9,21.2,30.27,South,180,0.0,0.0,76,0.00,,,0.00,WeatherTracker,2013-01-12 06:05:00,
2013-01-11 22:10:00,28.9,21.2,30.27,East,90,0.0,3.0,76,0.00,,,0.00,WeatherTracker,2013-01-12 06:10:00,
2013-01-11 22:15:00,28.9,21.2,30.27,ESE,112,0.0,0.0,76,0.00,,,0.00,WeatherTracker,2013-01-12 06:15:00,
2013-01-11 22:20:00,29.3,21.2,30.27,SE,135,0.0,0.0,75,0.00,,,0.00,WeatherTracker,2013-01-12 06:20:00,
2013-01-11 22:25:00,29.5,21.2,30.27,East,90,0.0,0.0,75,0.00,,,0.00,WeatherTracker,2013-01-12 06:25:00,
2013-01-11 22:35:00,29.7,21.2,30.27,SE,135,1.0,0.0,74,0.00,,,0.00,WeatherTracker,2013-01-12 06:35:00,
2013-01-11 22:45:00,29.7,21.2,30.27,SE,135,0.0,0.0,73,0.00,,,0.00,WeatherTracker,2013-01-12 06:45:00,
2013-01-11 22:50:00,30.0,21.2,30.27,East,90,1.0,3.0,73,0.00,,,0.00,WeatherTracker,2013-01-12 06:50:00,
2013-01-11 23:00:00,29.7,21.2,30.27,ENE,67,0.0,0.0,72,0.00,,,0.00,WeatherTracker,2013-01-12 07:00:00,
2013-01-11 23:10:00,29.5,21.2,30.27,ENE,67,0.0,0.0,72,0.00,,,0.00,WeatherTracker,2013-01-12 07:10:00,
2013-01-11 23:20:00,29.3,21.2,30.27,ENE,67,0.0,1.0,72,0.00,,,0.00,WeatherTracker,2013-01-12 07:20:00,
2013-01-11 23:25:00,29.3,21.2,30.27,ENE,67,0.0,0.0,72,0.00,,,0.00,WeatherTracker,2013-01-12 07:25:00,
2013-01-11 23:30:00,29.1,21.2,30.27,ENE,67,1.0,1.0,72,0.00,,,0.00,WeatherTracker,2013-01-12 07:30:00,
2013-01-11 23:35:00,28.9,21.2,30.27,ENE,67,0.0,0.0,72,0.00,,,0.00,WeatherTracker,2013-01-12 07:35:00,
2013-01-11 23:45:00,28.8,21.2,30.30,ESE,112,0.0,0.0,73,0.00,,,0.00,WeatherTracker,2013-01-12 07:45:00,
2013-01-11 23:50:00,28.8,21.2,30.30,SSE,157,0.0,0.0,73,0.00,,,0.00,WeatherTracker,2013-01-12 07:50:00,
2013-01-11 23:55:00,28.6,19.4,30.30,SE,135,0.0,0.0,73,0.00,,,0.00,WeatherTracker,2013-01-12 07:55:00,